Location: Unspecified
(39.0670°S, 0.0000°E)
Time: 04:57:04
(UTC+00:00)

Envisat - Pass Details

Date: 29 June 2019
Orbit: 764 x 766 km, 98.1° (Epoch: 23 July)

Event Time Altitude Azimuth Distance (km) Brightness Sun altitude
Exits shadow 18:48:57 34° 43° (NE) 1,255 3.8 -22.9°
Drops below altitude 10° 18:52:19 10° 11° (N) 2,307 5.5 -23.5°
Sets 18:54:43 0° 4° (N) 3,225 6.3 -24.0°
